Flag for Germany Weather for the Past 2 Weeks in Heidenheim an der Brenz, Baden-Württemberg, Germany

Now
48 °F

Cool.


Feels Like: 48 °F
Forecast: 47 / 67 °F
Wind: 1 mph from East

Location: Laupheim Airport

Current Time: May 7, 2016 at 2:48:30 AM

Latest Report: May 7, 2016 at 2:20 AM


Visibility: N/A

Pressure: 29.92 "Hg

Humidity: 76%

Dew Point: 41 °F

Location of Heidenheim an der BrenzLocation

Historic Weather in Heidenheim an der Brenz — Graph

°F

Heidenheim an der Brenz Temperature Yesterday

Maximum temperature yesterday: 70 °F (at 4:20 PM)
Minimum temperature yesterday: 41 °F (at 4:20 AM)
Average temperature yesterday: 54 °F

High & Low Weather Summary for the Past Weeks

 TemperatureHumidityPressure
High70 °F (May 6, 4:20 PM)100% (Apr 26, 7:20 PM)30.33 "Hg (Apr 26, 7:20 PM)
Low28 °F (Apr 28, 4:20 AM)27% (May 6, 5:20 PM)29.59 "Hg (Apr 26, 7:20 AM)
Average45 °F71%29.98 "Hg
* Reported Apr 22 1:20 AM — May 7 1:20 AM, Heidenheim an der Brenz, Weather by CustomWeather, © 2016

Note: Actual official high and low records may vary slightly from our data, if they occured in-between our weather recording intervals... More about our weather records

Advertising

Heidenheim an der Brenz Weather History for the Previous 24 Hours

Scroll right to see more
 ConditionsComfort  
Time TempWeatherWind HumidityBarometerVisibility
1:20 AM
Sat, May 7
52 °FCool.3 mph67%29.92 "HgN/A
12:20 AM52 °FCool.2 mph62%29.92 "HgN/A
11:20 PM
Fri, May 6
57 °FPassing clouds.3 mph51%29.92 "HgN/A
10:20 PM61 °FPassing clouds.5 mph45%29.92 "HgN/A
9:20 PM63 °FPassing clouds.5 mph42%29.92 "HgN/A
8:20 PM64 °FPassing clouds.3 mph40%29.92 "HgN/A
7:20 PM68 °FPassing clouds.6 mph30%29.92 "HgN/A
6:20 PM70 °FPassing clouds.10 mph27%29.92 "HgN/A
5:20 PM70 °FPassing clouds.6 mph27%29.95 "HgN/A
4:20 PM70 °FPassing clouds.9 mph31%29.95 "HgN/A
3:20 PM68 °FPassing clouds.7 mph30%29.98 "HgN/A
2:20 PM66 °FScattered clouds.3 mph40%30.01 "HgN/A
1:20 PM64 °FScattered clouds.3 mph46%30.01 "HgN/A
12:20 PM61 °FScattered clouds.2 mph48%30.04 "HgN/A
11:20 AM55 °FScattered clouds.1 mph67%30.07 "HgN/A
10:20 AM48 °FScattered clouds.2 mph87%30.07 "Hg5 mi
10:02 AM48 °FFog.1 mph87%30.07 "Hg2 mi
9:20 AM45 °FFog.1 mph93%30.07 "Hg1 mi
9:03 AM45 °FFog.1 mph93%30.07 "Hg1 mi
8:20 AM43 °FFog.1 mph100%30.07 "Hg0 mi
7:20 AM43 °FFog.2 mph93%30.07 "Hg0 mi
6:20 AM41 °FFog.2 mph100%30.07 "Hg1 mi
5:20 AM41 °FFog.3 mph93%30.07 "Hg2 mi
4:20 AM41 °FFog.3 mph93%30.07 "HgN/A
3:20 AM43 °FQuite cool.5 mph93%30.07 "HgN/A
2:20 AM43 °FQuite cool.5 mph93%30.07 "HgN/A
Weather by CustomWeather, © 2016

See weather overviewHow to use our weather pages